Regional Weather Roundup
Issued by NWS

Home | Current Version | Previous Version | Text Only | Print | Product List | Glossary Off
Versions: 1 2 3 4 5 6 7 8 9 10 11 12 13 14 15 16 17 18 19 20 21 22 23 24 25 26 27 28 29 30 31 32 33 34 35 36 37 38 39 40 41 42 43 44 45 46 47 48 49 50

000
ASUS43 KDMX 251906
RWRIA

WEATHER ROUNDUP FOR IOWA
NATIONAL WEATHER SERVICE DES MOINES IA
100 PM CST SAT FEB 25 2017

NOTE: "FAIR" INDICATES FEW OR NO CLOUDS BELOW 12,000 FEET WITH NO
SIGNIFICANT WEATHER AND/OR OBSTRUCTIONS TO VISIBILITY.

* - THESE STATIONS ARE NOT NWS STATIONS...THUS NOT UNDER NWS
QUALITY CONTROL.  THEY ALSO DO NOT REPORT WEATHER SUCH
AS PRECIPITATION OR FOG.

IAZ001>003-012>014-020>022-031>034-043>046-252000-
   NORTHWEST IOWA

CITY           SKY/WX    TMP DP  RH WIND       PRES   REMARKS
CARROLL *      CLOUDY    27  18  69 SW10      30.06F WCI  17
CHEROKEE *     CLOUDY    24  16  69 SW12      30.04F WCI  13
DENISON *      CLOUDY    25  16  68 SW10      30.05F WCI  15
LE MARS *      CLOUDY    27  16  63 S9        30.04F WCI  17
SHELDON *      CLOUDY    25  21  86 SW13      29.99F WCI  13
SIOUX CITY     CLOUDY    28  15  58 SW9       30.06F WCI  19
SPENCER        CLOUDY    24  16  71 SW15      30.01F WCI  11
STORM LAKE *     N/A     21  16  79 SW13      30.03F WCI   9
$$

IAZ055>058-069>071-079>083-090>094-252000-
   SOUTHWEST IOWA

CITY           SKY/WX    TMP DP  RH WIND       PRES   REMARKS
ATLANTIC *     CLOUDY    27  18  69 W7        30.09F WCI  19
AUDUBON *      CLOUDY    27  18  69 SW7       30.08F WCI  19
CLARINDA *     MOSUNNY   28  19  69 W6        30.15F WCI  22
COUNCIL BLFS * CLOUDY    27  19  74 SW9       30.09F WCI  17
CRESTON *      CLOUDY    28  16  59 W12       30.10F WCI  18
HARLAN  *      CLOUDY    25  18  74 SW7       30.12F WCI  17
LAMONI         CLOUDY    31  17  56 W10       30.09F WCI  22
RED OAK *      MOSUNNY   28  18  64 SW8       30.12F WCI  20
SHENANDOAH *   CLOUDY    30  19  64 SW9       30.14F WCI  22
$$

IAZ047>049-059>061-072>074-084-252000-
   CENTRAL IOWA

CITY           SKY/WX    TMP DP  RH WIND       PRES   REMARKS
AMES           SUNNY     26  17  68 W8        30.06F WCI  18
ANKENY *       SUNNY     27  14  59 W8G14     30.09F WCI  18
BOONE *        SUNNY     25  14  63 W10       30.05F WCI  15
CHARITON *     SUNNY     28  14  54 W10       30.08F WCI  19
DES MOINES     CLOUDY    28  13  53 NW6       30.08F WCI  22
GRINNELL*      SUNNY     26  17  68 NW14      30.05F WCI  14
KNOXVILLE *    SUNNY     28  12  50 W14       30.06S WCI  17
MARSHALLTOWN   SUNNY     24  15  68 NW15      30.03F WCI  11
NEWTON *       SUNNY     27  14  59 NW12G17   30.05F WCI  16
PELLA *        SUNNY     28  14  56 NW12G17   30.08F WCI  18
PERRY *          N/A     26  16  65 W13       30.09S WCI  15
$$

IAZ004>006-015-016-023>025-035-036-252000-
   NORTH CENTRAL IOWA

CITY           SKY/WX    TMP DP  RH WIND       PRES   REMARKS
ALGONA *       FLURRIES  23  16  74 W14       30.01F WCI  11
CLARION *      SUNNY     23  14  68 W12       30.03F WCI  12
ESTHERVILLE    PTSUNNY   22  16  78 SW12      29.99F WCI  10
FORT DODGE *   SUNNY     25  14  63 W9        30.06S WCI  15
MASON CITY     SUNNY     21  12  68 W13       30.01S WCI   9
FOREST CITY *    N/A     28  14  54 W8        29.99F WCI  20
WEBSTER CITY * SUNNY     23  12  63 W10G16    30.03S WCI  12
IOWA FALLS *     N/A     25  15  67 W13       30.04S WCI  14
$$

IAZ007>011-017>019-026>030-037>042-050>054-066-252000-
   NORTHEAST IOWA

CITY           SKY/WX    TMP DP  RH WIND       PRES   REMARKS
CEDAR RAPIDS   SUNNY     24  16  71 NW18      30.00S WCI  10
CHARLES CITY * SUNNY     23  12  63 W13       29.99S WCI  11
CLINTON *      PTSUNNY   26  19  74 W28       29.95S WCI  10
DECORAH *      SUNNY     21  10  63 NW12G21   29.94S WCI   9
DUBUQUE        SUNNY     22  12  65 NW18      29.94R WCI   7
MONTICELLO *   SUNNY     25  14  63 NW21G26   29.97S WCI  10
OELWEIN *      SUNNY     23  14  68 NW17      29.98S WCI   9
WATERLOO       SUNNY     23  12  62 W10       30.01S WCI  12
$$

IAZ064-065-067-068-078-252000-
   EAST CENTRAL IOWA

CITY           SKY/WX    TMP DP  RH WIND       PRES   REMARKS
DAVENPORT      MOSUNNY   25  16  68 W24       29.98S WCI   9
IOWA CITY      SUNNY     26  14  60 NW14G28   30.04S WCI  14
MUSCATINE *    SUNNY     27  16  63 W18       30.04S WCI  13
QUAD CITIES    CLOUDY    28  17  63 W15G24    29.99R WCI  16
$$

IAZ062-063-075>077-085>089-095>099-252000-
   SOUTHEAST IOWA

CITY           SKY/WX    TMP DP  RH WIND       PRES   REMARKS
BURLINGTON     SUNNY     29  17  61 W12G21    30.03S WCI  19
FAIRFIELD *    SUNNY     27  14  59 NW18G24   30.05S WCI  13
KEOKUK *       SUNNY     32  14  47 W18G25    30.05S WCI  20
CENTERVILLE *    N/A     30  16  55 W14G20    30.09F WCI  20
OTTUMWA        SUNNY     28  14  55 W12       30.06S WCI  18
WASHINGTON *   SUNNY     27  16  63 NW16G26   30.05F WCI  14
$$

ABBREVIATIONS USED IN REMARKS
   TC - TEMPERATURES IN CELSIUS
  WCI - WIND CHILL INDEX
   HX - HEAT INDEX
  VSB - VISIBILITY
$$





USA.gov is the U.S. government's official web portal to all federal, state and local government web resources and services.